Regional Weather Roundup
Issued by NWS

Home | Current Version | Previous Version | Text Only | Print | Product List | Glossary Off
Versions: 1 2 3 4 5 6 7 8 9 10 11 12 13 14 15 16 17 18 19 20 21 22 23 24 25 26 27 28 29 30 31 32 33 34 35 36 37 38 39 40 41 42 43 44 45 46 47 48 49 50

000
ASUS43 KIND 242359
RWRIN

WEATHER ROUNDUP FOR INDIANA
NATIONAL WEATHER SERVICE INDIANAPOLIS IN
800 PM EDT FRI MAR 24 2017

NOTE: "FAIR" INDICATES FEW OR NO CLOUDS BELOW 12,000 FEET WITH NO
SIGNIFICANT WEATHER AND/OR OBSTRUCTIONS TO VISIBILITY.

* - STATION DOES NOT REPORT WEATHER SUCH AS PRECIPITATION OR FOG.

+ - STATION NOT QUALITY CONTROLLED BY THE NATIONAL WEATHER SERVICE.
    USE DATA WITH CAUTION...ESPECIALLY DEWPOINT AND RELATIVE
    HUMIDITY OBSERVATIONS.

INZ001>003-010>013-019-020-250100-
NORTHWEST INDIANA

CITY           SKY/WX    TMP DP  RH WIND       PRES   REMARKS
GARY /AIRPORT/ CLOUDY    45  37  76 NW16G31   30.00R
MONTICELLO +   CLOUDY    68  54  60 SW18      30.00R
6HR MIN TEMP:  68; 6HR MAX TEMP:  76;


$$

LMZ046-743>745-250100-
SOUTHERN LAKE MICHIGAN

STATION/POSITION TIME  TEMP    WIND        PRES    WAVE
                       AIR SEA DIR/SP/G            HT
                 (UTC) (F)     (DEG/KT/KT) (MB)    (FT)
BURNS HARBOR     2340   42     340/ 16/ 23 1015.2R
MICHIGAN CITY    2330   73     200/ 17/ 20   N/A

$$

INZ004-005-014>016-021>024-250100-
NORTH CENTRAL INDIANA

CITY           SKY/WX    TMP DP  RH WIND       PRES   REMARKS
ELKHART        CLOUDY    72  54  53 SW14      29.97R
GOSHEN         CLEAR     68  53  58 SW17      29.99R
6HR MIN TEMP:  68; 6HR MAX TEMP:  76;

SOUTH BEND     MOCLDY    70  54  56 SW18      29.97R
6HR MIN TEMP:  70; 6HR MAX TEMP:  78;


$$

INZ006>009-017-018-025>027-250100-
NORTHEAST INDIANA

CITY           SKY/WX    TMP DP  RH WIND       PRES   REMARKS
ANGOLA *+      CLEAR     70  55  60 SW18      29.99R
FORT WAYNE     MOCLDY    68  53  58 SW15      30.04R
6HR MIN TEMP:  68; 6HR MAX TEMP:  76;

KENDALLVILLE + CLOUDY    67  54  61 SW15G21   30.01R

$$

INZ028-029-035-036-043>045-051>053-250100-
WEST CENTRAL INDIANA

CITY           SKY/WX    TMP DP  RH WIND       PRES   REMARKS
CRAWFORDSVL +  CLOUDY    66  54  65 S13       30.05R
6HR MIN TEMP:  66; 6HR MAX TEMP:  72;

GREENCASTLE +  PTCLDY    68  52  56 S7        30.06S
LAFAYETTE      PTCLDY    69  55  60 SW15G25   30.01S
6HR MIN TEMP:  69; 6HR MAX TEMP:  75;

TERRE HAUTE    CLOUDY    69  54  58 S13       30.04S
6HR MIN TEMP:  69; 6HR MAX TEMP:  74;


$$

INZ030>032-037>040-046>048-054>057-064-065-250100-
CENTRAL INDIANA

CITY           SKY/WX    TMP DP  RH WIND       PRES   REMARKS
COLUMBUS       PTCLDY    70  54  56 SW12      30.07S
INDIANAPOLIS   CLOUDY    69  52  54 SW17G25   30.06R
6HR MIN TEMP:  69; 6HR MAX TEMP:  75;

-EAGLE CREEK   PTCLDY    70  51  51 SW9G21    30.05R
6HR MIN TEMP:  70; 6HR MAX TEMP:  74;

KOKOMO +       CLEAR     67  54  63 SW13      30.04S
6HR MIN TEMP:  67; 6HR MAX TEMP:  75;

SHELBYVILLE    CLOUDY    70  51  51 SW13      30.06S
6HR MIN TEMP:  70; 6HR MAX TEMP:  78;


$$

INZ033-034-041-042-049-050-058-059-250100-
EAST CENTRAL INDIANA

CITY           SKY/WX    TMP DP  RH WIND       PRES   REMARKS
MUNCIE         PTCLDY    71  52  50 SW12      30.05R
6HR MIN TEMP:  71; 6HR MAX TEMP:  77;

RICHMOND +     CLEAR     64  52  63 SW12      30.09S

$$

INZ060-061-067>069-081>083-085>088-250100-
SOUTHWEST INDIANA

CITY           SKY/WX    TMP DP  RH WIND       PRES   REMARKS
EVANSVILLE     MOCLDY    71  51  49 S9        30.05F
6HR MIN TEMP:  71; 6HR MAX TEMP:  76;

HUNTINGBURG *+ CLOUDY    69  53  56 S8        30.08F
6HR MIN TEMP:  69; 6HR MAX TEMP:  75;


$$

INZ062-063-066-070>080-084-089>092-250100-
SOUTH CENTRAL AND SOUTHEAST INDIANA

CITY           SKY/WX    TMP DP  RH WIND       PRES   REMARKS
BLOOMINGTON    MOCLDY    70  51  51 SW9       30.07S
6HR MIN TEMP:  69; 6HR MAX TEMP:  74;

MADISON *+     CLEAR     70  48  46 S13       30.14R
SEYMOUR +      PTCLDY    70  52  52 S13       30.09R

$$





USA.gov is the U.S. government's official web portal to all federal, state and local government web resources and services.